星链-30760 (STARLINK-30760 )

导读 | 星芒AI

STARLINK-30760 是 SpaceX 星链计划中的一颗低轨通信卫星,属于第三代星链卫星(Starlink V1.5 或后续型号)。它于2023年发射,运行在约550公里高度的近地轨道,旨在为全球提供高速互联网服务。该卫星采用先进推进系统和激光通信技术,提升网络稳定性和数据传输效率。作为星链星座的一部分,STARLINK-30760 支持偏远地区的宽带接入,助力全球互联网覆盖。

基本信息
目录编号:
58187
目录名称:
STARLINK-30760
国际标识:
2023-167N
轨道中心:
EARTH
卫星名称:
星链-30760
卫星全名:
星链-30760 (STARLINK-30760 )
卫星状态:
在轨 (已飞行782 天)
发射日期:
2023-10-30 UTC
国别 :
美国 (US)
星等 :
--
轨道信息
数据来源 国际轨道数据
星历时间: 2025-12-20T00:26:57+0800
16小时前
查看轨道信息
半长轴: 6937.219km
偏心率: 0.0001231
轨道倾角: 43.003°
近地点辐角 273.518°
升交点赤经 220.384°
平近点角 86.553°
近地点: 558.228km
远地点: 559.936km
周期: 95.838分钟
每日圈数: 15.025353
详细信息
固有亮度:
5
最大亮度:
0.3
卫星平台:
Starlink v2.0 mini
覆盖范围:
全球
运营商:
太空探索技术公司
运营商所在国:
美国
制造商(研发单位):
太空探索技术公司
制造商所在国:
美国
使用方式:
暂无
卫星简介
星链(Starlink)计划是由太空探索技术公司(SpaceX)提出的一个巨型低轨卫星互联网星座项目,计划在2019年至2024年间在太空搭建由约1.2万颗卫星组成的“星链”网络,其中1584颗将部署在地球上空550千米处的近地轨道,并从2020年开始工作。该卫星仍在工作。
2D轨道图
3D轨道图
轨道高度分析图
轨道倾角分析图
轨道综合分析图
查看轨道综合分析图